This is the latest recevied weather packets stored in our database for station/object KN6WGU. If no packets are shown the sender has not sent any weather packets the latest 10 day(s).
| Time | Temp. | Humidity | Pressure | Rain* | Wind** | Luminosity | Snow |
|---|---|---|---|---|---|---|---|
| 1777481272 | 10.56° C | 96% | 1003.1 hPa | 0 mm | - | 131 W/m² | - |
| 1777480969 | 10.56° C | 96% | 1003.4 hPa | 0 mm | - | 192 W/m² | - |
| 1777480665 | 10° C | 96% | 1003.4 hPa | 0 mm | - | 220 W/m² | - |
| 1777480363 | 10° C | 96% | 1003.4 hPa | 0 mm | - | 103 W/m² | - |
| 1777480058 | 10° C | 96% | 1003.2 hPa | 0 mm | - | 119 W/m² | - |
| 1777479755 | 10° C | 96% | 1003.2 hPa | 0 mm | - | 129 W/m² | - |
| 1777479453 | 10.56° C | 97% | 1003.2 hPa | 0 mm | - | 162 W/m² | - |
| 1777479148 | 10.56° C | 97% | 1003.1 hPa | 0 mm | - | 254 W/m² | - |
| 1777478846 | 10° C | 97% | 1003.4 hPa | 1.27 mm | - | 257 W/m² | - |
| 1777478542 | 10° C | 97% | 1003.8 hPa | 1.27 mm | - | 142 W/m² | - |
| 1777478240 | 10° C | 97% | 1003.5 hPa | 0 mm | - | 140 W/m² | - |
| 1777477936 | 10° C | 97% | 1003.4 hPa | 1.78 mm | - | 154 W/m² | - |
| 1777477631 | 9.44° C | 97% | 1003.6 hPa | 1.78 mm | - | 67 W/m² | - |
| 1777477328 | 9.44° C | 97% | 1003.9 hPa | 0 mm | - | 41 W/m² | - |
| 1777477024 | 9.44° C | 97% | 1004 hPa | 1.27 mm | - | 31 W/m² | - |
| 1777476722 | 9.44° C | 98% | 1004.4 hPa | 1.27 mm | - | 30 W/m² | - |
| 1777476418 | 9.44° C | 98% | 1004.3 hPa | 0 mm | - | 26 W/m² | - |
| 1777476115 | 9.44° C | 98% | 1004.4 hPa | 0 mm | - | 28 W/m² | - |
| 1777475810 | 10° C | 98% | 1004 hPa | 0 mm | - | 30 W/m² | - |
| 1777475507 | 10° C | 98% | 1003.8 hPa | 0 mm | - | 45 W/m² | - |
| 1777475204 | 10° C | 98% | 1003.7 hPa | 0 mm | - | 56 W/m² | - |
| 1777474899 | 10.56° C | 98% | 1003.7 hPa | 0 mm | - | 50 W/m² | - |
| 1777474595 | 10.56° C | 98% | 1003.5 hPa | 0 mm | - | 51 W/m² | - |
| 1777474292 | 10.56° C | 98% | 1003.4 hPa | 0 mm | - | 52 W/m² | - |
| 1777473988 | 10.56° C | 98% | 1003.5 hPa | 1.78 mm | - | 92 W/m² | - |
* Rain latest hour (hover to see other rain measurements)
** Current wind speed in m/s (hover to see current wind gust speed)